CZ-2F R/B (48853 NORAD) Tracking and Keplerian Element Data

This shows tracking and keplerian element data for the satellite.

Feedback or suggestion? Click here.




ElementValue
Catalog48853
NameCZ-2F R/B
Epoch Orbit263
Epoch Day184.3669726
Epoch Year2021
RAAN176.4382
Inclination41.4449
Eccentricity0.0023935
Argument of Perigee257.8677
Mean Anonmoly102.0097
Mean Motion16.42404313
Decay Rate0.07427027
L11 48853U 21053B 21184.36697260 .07427027 81122-5 22688-3 0 9991
L22 48853 41.4449 176.4382 0023935 257.8677 102.0097 16.42404313 2639

Live tracking and technical data element details for CZ-2F R/B (NORAD 48853). CZ-2F R/B can be tracked NOW for your location showing map with azimuth and elevation plus other details from your city location.

Track the satellite on the map from your city or location and see movement details for azimuth, elevation, latitude, longitude, range, height, and movement on the map or in text.







IsCatalogInMostPopularTable: catalog: 48853, numindb: 17
Update: records affected: 1



GetName: 48853 CZ-2F R/B

Hit Count: updated at: Tue, 03 Aug 2021 20:28:46 GMT